SCP
0 0 0 0 0 0 0 0 0 0 0 0 0 0 0 0 0 0 0 0 0 0 0 0 0 0 0 0 0 0 0 0 0 0 0 0 0 0 0 0 0 0 0 0
0 0 0 0 0 0 0 0 0 0 0 0 0 0 0 0 0 0 0 0 0 0 0 0 0 0 0 0 0 0 0 0 0 0 0 0 0 0 0 0 0 0 0 0
0 0 0 0 0 0 0 0 0 0 0 0 0 0 0 0 0 0 0 0 0 0 0 0 0 0 0 0 0 0 0 0 0 0 0 0 0 0 0 0 0 0 0 0
0 0 0 0 0 0 0 0 0 0 0 0 0 0 0 0 0 0 0 0 0 0 0 0 0 0 0 0 0 0 0 0 0 0 0 0 0 0 0 0 0 0 0 0
0 0 0 0 0 0 0 0 0 0 0 0 0 0 0 0 0 0 0 0 0 0 0 0 0 0 0 0 0 0 0 0 0 0 0 0 0 0 0 0 0 0 0 0
0 0 0 0 0 0 0 0 0 0 0 0 0 0 0 0 0 0 0 0 0 0 0 0 0 0 0 0 0 0 0 0 0 0 0 0 0 0 0 0 0 0 0 0
0 0 0 0 0 0 0 0 0 0 0 0 0 0 0 0 0 0 0 0 0 0 0 0 0 0 0 0 0 0 0 0 0 0 0 0 0 0 0 0 0 0 0 0
0 0 0 0 0 0 0 0 0 0 0 0 0 0 0 0 0 0 0 0 0 0 0 0 0 0 0 0 0 0 0 0 0 0 0 0 0 0 0 0 0 0 0 0
0 0 0 0 0 0 0 0 0 0 0 0 0 0 0 0 0 0 0 0 0 0 0 0 0 0 0 0 0 0 0 0 0 0 0 0 0 0 0 0 0 0 0 0
0 0 0 0 0 0 0 0 0 0 0 0 0 0 0 0 0 0 0 0 0 0 0 0 0 0 0 0 0 0 0 0 0 0 0 0 0 0 0 0 0 0 0 0
0 0 0 0 0 0 0 0 0 0 0 0 0 0 0 0 0 0 0 0 0 0 0 0 0 0 0 0 0 0 0 0 0 0 0 0 0 0 0 0 0 0 0 0
0 0 0 0 0 0 0 0 0 0 0 0 0 0 0 0 0 0 0 0 0 0 0 0 0 0 0 0 0 0 0 0 0 0 0 0 0 0 0 0 0 0 0 0
0 0 0 0 0 0 0 0 0 0 0 0 0 0 0 0 0 0 0 0 0 0 0 0 0 0 0 0 0 0 0 0 0 0 0 0 0 0 0 0 0 0 0 0
0 0 0 0 0 0 0 0 0 0 0 0 0 0 0 0 0 0 0 0 0 0 0 0 0 0 0 0 0 0 0 0 0 0 0 0 0 0 0 0 0 0 0 0
0 0 0 0 0 0 0 0 0 0 0 0 0 0 0 0 0 0 0 0 0 0 0 0 0 0 0 0 0 0 0 0 0 0 0 0 0 0 0 0 0 0 0 0
0 0 0 0 0 0 0 0 0 0 0 0 0 0 0 0 0 0 0 0 0 0 0 0 0 0 0 0 0 0 0 0 0 0 0 0 0 0 0 0 0 0 0 0
0 0 0 0 0 0 0 0 0 0 0 0 0 0 0 0 0 0 0 0 0 0 0 0 0 0 0 0 0 0 0 0 0 0 0 0 0 0 0 0 0 0 0 0
0 0 0 0 0 0 0 0 0 0 0 0 0 0 0 0 0 0 0 0 0 0 0 0 0 0 0 0 0 0 0 0 0 0 0 0 0 0 0 0 0 0 0 0
0 0 0 0 0 0 0 0 0 0 0 0 0 0 0 0 0 0 0 0 0 0 0 0 0 0 0 0 0 0 0 0 0 0 0 0 0 0 0 0 0 0 0 0
0 0 0 0 0 0 0 0 0 0 0 0 0 0 0 0 0 0 0 0 0 0 0 0 0 0 0 0 0 0 0 0 0 0 0 0 0 0 0 0 0 0 0 0
0 0 0 0 0 0 0 0 0 0 0 0 0 0 0 0 0 0 0 0 0 0 0 0 0 0 0 0 0 0 0 0 0 0 0 0 0 0 0 0 0 0 0 0
0 0 0 0 0 0 0 0 0 0 0 0 0 0 0 0 0 0 0 0 0 0 0 0 0 0 0 0 0 0 0 0 0 0 0 0 0 0 0 0 0 0 0 0
0 0 0 0 0 0 0 0 0 0 0 0 0 0 0 0 0 0 0 0 0 0 0 0 0 0 0 0 0 0 0 0 0 0 0 0 0 0 0 0 0 0 0 0
0 0 0 0 0 0 0 0 0 0 0 0 0 0 0 0 0 0 0 0 0 0 0 0 0 0 0 0 0 0 0 0 0 0 0 0 0 0 0 0 0 0 0 0
0 0 0 0 0 0 0 0 0 0 0 0 0 0 0 0 0 0 0 0 0 0 0 0 0 0 0 0 0 0 0 0 0 0 0 0 0 0 0 0 0 0 0 0
0 0 0 0 0 0 0 0 0 0 0 0 0 0 0 0 0 0 0 0 0 0 0 0 0 0 0 0 0 0 0 0 0 0 0 0 0 0 0 0 0 0 0 0
0 0 0 0 0 0 0 0 0 0 0 0 0 0 0 0 0 0 0 0 0 0 0 0 0 0 0 0 0 0 0 0 0 0 0 0 0 0 0 0 0 0 0 0
Wind_Speed
5 4 2 3 5 4 6 6 7 6 7 9 8 6 5 5 5 6 6 6 6 5 5 4 4 3 2 2 2 1 1 1 2 2 2 2 2 3 3 3 3 3 3 4
3 2 2 5 6 5 6 5 6 6 10 7 6 4 4 5 5 6 6 7 6 6 6 5 5 4 3 2 2 1 1 2 2 2 2 2 2 2 2 2 3 3 3 3
3 2 2 7 6 6 5 5 6 8 8 4 5 5 5 5 5 6 7 7 7 6 6 5 5 4 3 3 2 1 1 2 2 2 2 2 2 2 2 2 2 2 3 3
1 2 5 6 0 4 5 5 6 5 5 4 5 5 5 4 3 5 7 7 7 6 6 5 4 4 3 2 2 1 2 2 2 2 2 3 2 2 2 2 2 2 2 2
2 2 7 6 1 2 3 5 4 5 5 5 5 4 3 2 2 4 6 7 7 6 6 5 4 3 2 2 2 2 2 2 2 2 2 2 2 2 2 2 2 1 2 2
2 3 6 5 2 1 2 5 2 1 4 3 3 4 5 4 5 6 6 6 6 6 5 5 4 2 1 2 2 3 3 3 3 2 2 2 3 2 2 1 1 1 2 2
4 5 8 4 2 2 2 5 3 2 3 2 3 5 6 7 7 7 6 6 5 5 4 4 4 2 2 2 3 4 3 3 2 2 2 2 2 1 1 1 1 1 2 2
3 4 8 1 3 4 4 2 2 3 3 4 5 6 6 7 7 7 7 6 5 5 5 5 4 2 2 3 4 3 2 3 3 3 2 2 1 2 1 1 1 1 1 2
6 5 2 2 3 2 1 3 3 3 4 4 5 6 6 6 6 6 6 6 5 4 5 5 4 2 2 4 3 3 2 3 3 3 2 2 1 2 1 1 1 1 1 2
3 5 3 3 2 3 3 3 4 4 4 4 5 6 7 7 6 6 6 5 4 4 5 5 4 3 3 3 3 2 2 3 3 2 2 2 2 1 1 1 1 2 2 2
4 5 5 3 2 3 3 3 3 4 4 4 4 6 6 6 6 6 6 5 4 4 5 6 5 4 4 3 2 2 2 2 2 2 2 2 2 2 2 2 3 2 2 2
5 4 3 4 3 3 3 4 4 4 5 4 3 5 5 5 5 5 6 5 5 5 5 6 5 5 4 3 1 1 2 2 2 2 2 2 2 2 4 4 6 6 5 4
4 3 3 4 3 2 3 4 4 4 4 5 5 4 5 5 5 5 5 5 5 5 6 5 5 5 5 3 2 2 2 2 2 2 2 2 2 2 3 4 5 5 6 6
2 1 2 2 3 3 3 4 4 3 3 3 4 4 4 5 5 5 5 5 5 5 5 5 5 6 5 4 3 3 3 3 3 2 2 2 2 2 2 2 3 3 5 7
2 2 3 3 3 3 3 3 4 4 4 4 4 4 5 5 6 6 5 5 5 5 5 5 5 6 5 4 3 3 3 2 2 2 2 2 2 2 2 2 2 3 3 4
2 2 2 2 3 4 3 3 4 5 5 5 5 5 5 5 5 5 5 4 4 5 6 6 6 6 6 4 4 3 3 4 3 2 2 2 2 2 2 2 2 3 3 3
1 2 2 3 4 4 4 3 4 5 5 5 5 6 5 4 4 5 5 5 4 5 5 5 6 6 6 5 4 3 2 3 3 2 2 2 2 2 2 2 2 3 3 4
2 3 3 3 4 4 5 4 4 4 4 5 5 4 4 4 5 5 5 5 5 5 5 5 6 6 5 5 3 2 2 2 2 2 2 2 2 2 2 2 2 3 3 4
2 2 3 3 3 3 4 4 4 4 4 4 4 4 4 4 4 4 5 5 5 5 6 6 9 7 5 6 5 2 2 2 2 2 2 3 3 2 2 2 2 3 3 3
2 2 2 3 3 3 3 4 4 4 3 3 3 4 4 4 4 4 4 4 4 4 6 7 6 5 5 5 5 2 2 2 2 2 2 2 2 2 2 2 2 3 3 3
2 2 2 3 3 3 3 3 3 4 4 3 3 3 4 4 4 3 3 4 4 5 6 7 5 4 4 4 5 2 2 2 2 2 2 2 3 3 2 2 3 3 3 3
2 2 3 3 3 4 3 3 3 3 3 3 3 3 3 4 4 4 3 3 4 8 6 4 4 6 6 5 3 2 2 2 2 2 2 2 2 3 3 3 3 3 3 3
2 3 3 3 3 4 4 3 3 3 3 3 3 3 3 3 3 3 4 4 4 7 5 4 6 8 8 4 3 3 3 2 2 2 2 2 3 3 3 3 3 3 3 3
2 2 2 2 2 2 3 4 3 3 3 3 3 3 3 3 3 2 3 7 8 8 4 6 9 8 7 3 2 3 3 3 3 2 3 3 3 3 3 3 3 3 3 4
2 2 2 2 2 3 3 3 3 3 2 2 3 3 2 2 2 3 3 4 7 7 4 6 8 8 5 3 3 3 3 3 3 3 2 3 3 3 3 3 3 3 4 4
2 2 2 3 2 2 2 2 3 3 3 3 3 3 2 2 2 3 3 4 5 6 5 3 4 5 3 3 3 3 3 4 5 4 3 3 4 4 4 4 4 4 4 4
2 2 2 2 2 2 2 2 2 3 3 3 4 3 3 3 3 3 3 3 4 4 4 3 3 3 3 3 4 4 3 4 4 4 4 4 4 4 4 5 4 4 4 4
Wind_Direction
254 265 225 237 248 217 209 219 224 249 256 278 297 305 311 321 330 335 336 336 333 329 324 323 325 322 321 319 324 327 332 306 284 287 286 278 267 255 251 249 248 248 245 245
273 259 246 276 266 231 235 240 242 265 270 276 301 327 329 328 330 333 330 327 326 325 326 321 316 315 316 317 316 332 323 307 314 316 307 294 285 279 268 263 260 253 250 246
264 297 334 275 241 205 215 220 201 230 255 301 314 319 315 312 322 324 324 323 323 319 314 311 308 305 297 295 313 322 311 318 325 321 311 301 297 297 282 273 270 264 255 246
251 31 247 251 199 182 209 237 217 241 278 296 287 294 293 288 299 317 323 322 320 318 317 315 309 303 298 308 313 310 319 323 322 320 312 310 308 299 294 291 275 271 269 257
168 237 274 292 254 167 201 271 227 239 283 314 325 324 306 315 328 306 306 306 305 306 308 311 312 306 309 319 323 325 319 314 309 305 305 310 306 300 303 308 308 305 291 281
167 207 247 263 304 234 109 291 304 235 277 306 352 328 301 326 323 316 314 311 311 313 317 318 317 315 314 310 311 300 298 298 299 299 296 295 293 301 313 308 304 306 304 301
200 231 261 272 294 117 158 266 321 287 277 277 262 258 287 309 314 314 313 314 315 315 315 311 314 316 305 305 294 294 303 308 310 305 295 286 288 297 299 305 325 319 306 302
179 216 258 307 111 171 231 299 306 299 293 282 284 294 300 307 313 319 319 320 322 321 317 316 316 309 301 299 297 309 312 313 315 311 304 305 310 311 310 305 324 313 309 308
197 218 262 161 200 247 283 288 296 295 300 298 299 302 308 311 312 314 313 315 319 316 314 318 317 302 289 300 312 318 323 318 315 317 319 313 299 298 303 289 275 291 301 302
253 268 269 265 277 308 301 286 294 297 301 306 300 303 309 311 314 317 316 315 317 318 317 318 320 317 293 300 312 314 313 315 316 319 320 321 308 293 289 282 276 274 280 290
263 286 310 295 273 300 315 315 314 317 311 300 297 302 304 309 312 313 318 320 319 315 311 312 319 317 314 312 314 313 309 311 314 311 306 310 313 297 288 269 263 269 265 267
239 255 247 276 298 318 314 313 313 317 321 322 308 300 307 307 309 312 318 322 323 322 320 319 321 317 315 310 297 283 296 304 298 296 297 301 306 314 301 296 298 300 299 294
252 281 268 285 311 323 312 313 318 316 311 316 321 313 311 309 315 320 322 325 324 323 322 321 321 320 317 313 303 281 274 282 282 286 290 292 294 297 308 312 311 314 315 313
282 309 295 293 299 317 321 322 326 325 320 314 313 319 319 314 318 324 323 323 323 325 325 323 323 320 319 316 308 295 282 277 281 273 276 279 280 281 285 298 310 314 317 317
291 257 260 291 315 328 332 337 338 333 332 332 329 327 326 321 319 319 320 325 330 331 329 328 325 320 320 319 311 297 289 281 278 279 279 280 281 281 280 285 293 305 314 318
313 316 293 301 309 319 328 330 324 318 322 322 322 320 316 310 309 313 321 331 333 328 325 322 318 318 324 322 317 305 290 293 301 294 291 291 285 280 281 284 289 297 301 306
346 316 307 307 306 307 306 301 297 301 307 308 309 312 316 320 321 325 329 330 323 314 314 315 317 322 325 324 317 309 308 305 311 310 292 285 282 277 279 284 289 294 296 300
236 256 260 260 276 293 303 305 302 302 300 300 309 315 319 318 315 317 321 326 329 328 329 329 325 327 331 330 324 320 322 318 317 310 300 288 287 281 282 283 288 294 302 308
287 281 283 282 279 280 288 295 299 300 301 306 310 308 304 303 305 311 320 327 328 327 329 330 332 341 335 330 338 340 335 327 327 322 313 308 315 302 294 292 293 296 301 307
301 299 296 296 298 286 287 294 297 299 301 302 303 308 312 312 314 317 323 318 306 300 309 318 327 331 329 328 342 342 335 330 326 323 322 318 315 310 307 305 304 304 304 306
298 300 299 301 305 301 292 292 295 298 302 299 291 294 300 305 310 313 317 314 314 316 319 327 335 326 323 332 342 342 337 330 325 320 322 322 320 316 315 312 309 307 306 307
286 292 296 301 303 305 307 302 294 296 303 303 297 296 303 310 317 316 299 285 302 318 327 323 322 326 339 350 351 344 338 332 324 320 318 316 314 312 313 313 307 305 302 301
288 291 294 296 296 300 310 309 301 295 293 293 291 291 293 296 300 302 307 310 311 318 327 319 323 335 350 2 353 344 335 327 317 311 307 305 302 300 301 302 301 301 301 301
290 295 296 301 304 305 308 311 310 303 295 292 288 285 289 299 304 289 285 305 317 322 327 322 333 340 350 358 342 336 328 319 310 304 301 299 296 294 293 294 295 297 297 298
291 291 292 298 298 295 297 308 314 312 311 311 310 306 296 279 280 301 307 307 314 324 326 325 332 339 347 336 330 324 319 312 308 305 304 306 301 297 293 290 287 288 290 290
289 285 281 274 273 282 293 299 303 306 311 312 314 310 309 309 300 299 305 309 310 319 324 321 324 328 332 327 322 318 315 316 321 320 309 303 298 296 294 292 288 285 285 284
309 305 303 305 301 296 296 297 297 300 300 295 297 305 314 314 311 311 311 312 314 316 315 317 319 320 319 317 315 313 311 310 309 307 306 302 299 295 293 290 288 285 285 284